BAW971 EDDH-EGLL

Flight info

Callsign BAW971
Flight time N/A
Altitude 40000
Route WSN5G WSN N125 ITMIZ DCT PARYD DCT ABNED L980 LOGAN
Aircraft B77L/H-SDE1E2E3FGHIJ2J3J4J5M1RWXY/LB1D1

Departure

Time 2026-04-24 16:38
Airport Hamburg Helmut Schmidt Airport (EDDH)

Arrival

Time N/A
Airport London Heathrow Airport (EGLL)
Time Latitude Longitude Altitude Speed Heading
2026-04-24 16:11 53.62898 10.00197 49 ft 0 kts 122°
2026-04-24 16:30 53.62910 10.00166 47 ft 4 kts 129°
2026-04-24 16:30 53.62929 10.00133 47 ft 4 kts 141°
2026-04-24 16:30 53.62951 10.00111 47 ft 4 kts 169°
2026-04-24 16:31 53.62969 10.00112 47 ft 0 kts 209°
2026-04-24 16:33 53.62968 10.00111 47 ft 1 kts 209°
2026-04-24 16:33 53.62917 10.00063 47 ft 12 kts 206°
2026-04-24 16:33 53.62858 9.99993 51 ft 10 kts 234°
2026-04-24 16:34 53.62850 9.99974 52 ft 0 kts 239°
2026-04-24 16:35 53.62824 9.99894 50 ft 16 kts 243°
2026-04-24 16:35 53.62858 9.99752 47 ft 15 kts 327°
2026-04-24 16:35 53.62865 9.99746 48 ft 0 kts 332°
2026-04-24 16:37 53.62874 9.99738 50 ft 11 kts 332°
2026-04-24 16:38 53.63218 9.99438 50 ft 104 kts 333°
2026-04-24 16:38 53.64125 9.98668 215 ft 174 kts 329°
2026-04-24 16:38 53.65242 9.97728 912 ft 193 kts 329°
2026-04-24 16:38 53.66542 9.96614 1684 ft 221 kts 330°
2026-04-24 16:39 53.67908 9.95392 2734 ft 225 kts 330°
2026-04-24 16:39 53.69306 9.94094 3590 ft 235 kts 327°
2026-04-24 16:39 53.70469 9.92185 4375 ft 245 kts 302°
2026-04-24 16:39 53.71035 9.89378 5356 ft 256 kts 282°
2026-04-24 16:40 53.70955 9.86332 6320 ft 270 kts 259°
2026-04-24 16:40 53.70298 9.83344 7055 ft 280 kts 254°
2026-04-24 16:40 53.69566 9.80299 8091 ft 279 kts 253°
2026-04-24 16:40 53.68825 9.77267 9103 ft 281 kts 253°
2026-04-24 16:41 53.68072 9.74188 9887 ft 286 kts 253°
2026-04-24 16:41 53.67216 9.71132 10186 ft 295 kts 241°
2026-04-24 16:41 53.65713 9.68647 10274 ft 313 kts 218°
2026-04-24 16:41 53.63772 9.66677 10552 ft 340 kts 214°
2026-04-24 16:42 53.61649 9.64567 10831 ft 367 kts 214°
2026-04-24 16:42 53.59422 9.62340 11599 ft 377 kts 214°
2026-04-24 16:42 53.57150 9.60055 12574 ft 382 kts 214°
2026-04-24 16:42 53.54891 9.57771 13675 ft 384 kts 214°
2026-04-24 16:43 53.52593 9.55441 14662 ft 388 kts 214°
2026-04-24 16:43 53.50277 9.53092 15626 ft 390 kts 214°
2026-04-24 16:43 53.47937 9.50721 16592 ft 394 kts 214°
2026-04-24 16:43 53.45580 9.48339 17549 ft 397 kts 214°
2026-04-24 16:44 53.43205 9.45946 18434 ft 401 kts 214°
2026-04-24 16:44 53.40790 9.43521 19239 ft 405 kts 214°
2026-04-24 16:44 53.38362 9.41092 20046 ft 408 kts 214°
2026-04-24 16:44 53.35901 9.38644 20834 ft 412 kts 214°
2026-04-24 16:45 53.33447 9.36160 21563 ft 411 kts 218°
2026-04-24 16:45 53.31362 9.32912 22137 ft 411 kts 237°
2026-04-24 16:45 53.30068 9.28701 22893 ft 408 kts 254°
2026-04-24 16:45 53.29286 9.24163 23606 ft 408 kts 255°
2026-04-24 16:46 53.28419 9.19608 24197 ft 414 kts 253°
2026-04-24 16:46 53.27481 9.15038 24892 ft 416 kts 252°
2026-04-24 16:46 53.26522 9.10477 25592 ft 417 kts 252°
2026-04-24 16:46 53.25549 9.05869 26268 ft 420 kts 252°
2026-04-24 16:47 53.24576 9.01247 26892 ft 423 kts 252°
2026-04-24 16:47 53.23601 8.96603 27505 ft 427 kts 252°
2026-04-24 16:47 53.22616 8.91901 28111 ft 430 kts 252°
2026-04-24 16:47 53.21628 8.87182 28719 ft 433 kts 252°
2026-04-24 16:48 53.20631 8.82422 29322 ft 436 kts 252°
2026-04-24 16:48 53.19728 8.78012 29563 ft 445 kts 253°
2026-04-24 16:48 53.18712 8.73047 29625 ft 457 kts 252°
2026-04-24 16:48 53.17728 8.68200 29749 ft 465 kts 251°
2026-04-24 16:49 53.16642 8.63065 29937 ft 472 kts 251°
2026-04-24 16:49 53.15526 8.57904 30287 ft 474 kts 251°
2026-04-24 16:49 53.14402 8.52736 30743 ft 471 kts 251°
2026-04-24 16:49 53.13299 8.47645 31306 ft 467 kts 251°
2026-04-24 16:50 53.12574 8.44287 31691 ft 463 kts 251°
2026-04-24 16:50 53.11123 8.37552 32407 ft 459 kts 251°
2026-04-24 16:50 53.10050 8.32556 32891 ft 456 kts 251°
2026-04-24 16:50 53.08986 8.27609 33347 ft 454 kts 251°
2026-04-24 16:51 53.07937 8.22737 33812 ft 452 kts 251°
2026-04-24 16:51 53.06865 8.17775 34273 ft 449 kts 251°
2026-04-24 16:51 53.05823 8.12956 34590 ft 449 kts 251°
2026-04-24 16:51 53.04763 8.08069 34816 ft 450 kts 251°
2026-04-24 16:52 53.03697 8.03167 35070 ft 451 kts 251°
2026-04-24 16:52 53.02631 7.98278 35345 ft 451 kts 251°
2026-04-24 16:52 53.01562 7.93391 35634 ft 450 kts 251°
2026-04-24 16:52 53.00490 7.88498 35904 ft 450 kts 251°
2026-04-24 16:53 52.99418 7.83621 36140 ft 450 kts 251°
2026-04-24 16:53 52.98344 7.78740 36410 ft 450 kts 251°
2026-04-24 16:53 52.97268 7.73867 36674 ft 450 kts 251°
2026-04-24 16:53 52.96187 7.68979 36932 ft 450 kts 251°
2026-04-24 16:54 52.95111 7.64129 37196 ft 450 kts 251°
2026-04-24 16:54 52.94034 7.59284 37438 ft 449 kts 251°
2026-04-24 16:54 52.92947 7.54402 37697 ft 449 kts 251°
2026-04-24 16:54 52.91868 7.49570 37956 ft 449 kts 251°
2026-04-24 16:55 52.90779 7.44705 38169 ft 449 kts 251°
2026-04-24 16:55 52.89692 7.39858 38394 ft 449 kts 251°
2026-04-24 16:55 52.88601 7.35008 38626 ft 449 kts 251°
2026-04-24 16:55 52.87510 7.30167 38850 ft 448 kts 251°
2026-04-24 16:56 52.86418 7.25332 39034 ft 449 kts 251°
2026-04-24 16:56 52.85320 7.20483 39163 ft 450 kts 251°
2026-04-24 16:56 52.84217 7.15622 39274 ft 451 kts 251°
2026-04-24 16:56 52.83115 7.10778 39435 ft 450 kts 251°
2026-04-24 16:57 52.82020 7.05980 40021 ft 440 kts 251°
2026-04-24 16:57 52.80939 7.01253 40238 ft 440 kts 251°
2026-04-24 16:57 52.78756 6.91726 40226 ft 446 kts 251°
2026-04-24 16:58 52.76541 6.82100 40248 ft 451 kts 251°
2026-04-24 16:58 52.74307 6.72441 40241 ft 455 kts 251°
2026-04-24 16:59 52.72026 6.62628 40245 ft 459 kts 250°
2026-04-24 17:00 52.68566 6.47828 40241 ft 463 kts 250°
2026-04-24 17:00 52.65059 6.32928 40250 ft 465 kts 250°
2026-04-24 17:01 52.61532 6.18049 40257 ft 465 kts 250°
2026-04-24 17:02 52.57986 6.03191 40248 ft 463 kts 250°
2026-04-24 17:02 52.55623 5.93348 40257 ft 462 kts 250°
2026-04-24 17:03 52.52071 5.78631 40278 ft 462 kts 250°
2026-04-24 17:04 52.49695 5.68840 40276 ft 461 kts 249°
2026-04-24 17:04 52.46118 5.54184 40267 ft 461 kts 249°
2026-04-24 17:05 52.43722 5.44423 40269 ft 461 kts 249°
2026-04-24 17:06 52.40156 5.29975 40249 ft 462 kts 249°
2026-04-24 17:06 52.36523 5.15352 40263 ft 462 kts 249°
2026-04-24 17:07 52.34110 5.05691 40264 ft 462 kts 249°
2026-04-24 17:08 52.29210 4.86201 40266 ft 464 kts 249°
2026-04-24 17:08 52.26740 4.76445 40268 ft 464 kts 249°
2026-04-24 17:09 52.21776 4.56958 40253 ft 465 kts 249°
2026-04-24 17:10 52.16776 4.37500 40258 ft 465 kts 248°
2026-04-24 17:12 52.06684 3.98728 40274 ft 465 kts 248°